Home   Weather   Thessaloniki   Past weeks

Flag for Greece Past Weather in Thessaloniki, Greece — Yesterday and Last 2 Weeks

Now
79 °F

Sunny.


Feels Like: 79 °F
Forecast: 49 / 80 °F
Wind: 5 mph from Northwest

Location: Thessaloniki Airport

Current Time: Sep 30, 2016 at 4:39:23 PM

Latest Report: Sep 30, 2016 at 3:50 PM


Visibility: 10 mi

Pressure: 30.12 "Hg

Humidity: 34%

Dew Point: 48 °F

Location of ThessalonikiLocation

Past Weather in Thessaloniki — Graph

°F

Thessaloniki Temperature Yesterday

Maximum temperature yesterday: 79 °F (at 4:20 PM)
Minimum temperature yesterday: 52 °F (at 7:20 AM)
Average temperature yesterday: 64 °F

High & Low Weather Summary for the Past Weeks

 TemperatureHumidityPressure
High88 °F (Sep 15, 4:20 PM)100% (Sep 20, 7:20 AM)30.39 "Hg (Sep 20, 7:20 AM)
Low48 °F (Sep 23, 6:20 AM)23% (Sep 23, 1:50 PM)29.65 "Hg (Sep 20, 4:20 AM)
Average67 °F64%30.05 "Hg
* Reported Sep 15 3:20 PM — Sep 30 3:20 PM, Thessaloniki, Weather by CustomWeather, © 2016

Note: Actual official high and low records may vary slightly from our data, if they occured in-between our weather recording intervals... More about our weather records

Advertising

Thessaloniki Weather History for the Previous 24 Hours

Scroll right to see more
 ConditionsComfort  
Time TempWeatherWind HumidityBarometerVisibility
3:20 PM
Fri, Sep 30
79 °FSunny.6 mph32%30.12 "Hg10 mi
2:50 PM77 °FSunny.5 mph42%30.12 "Hg10 mi
2:20 PM77 °FSunny.5 mph39%30.12 "Hg10 mi
1:50 PM75 °FSunny.5 mph41%30.15 "Hg10 mi
1:20 PM73 °FSunny.6 mph47%30.15 "Hg10 mi
12:50 PM72 °FSunny.6 mph53%30.18 "Hg10 mi
12:20 PM70 °FSunny.5 mph57%30.18 "Hg10 mi
11:50 AM68 °FSunny.5 mph60%30.18 "Hg10 mi
11:20 AM68 °FSunny.5 mph64%30.18 "Hg10 mi
10:50 AM66 °FSunny.5 mph68%30.18 "Hg10 mi
10:20 AM66 °FSunny.3 mph68%30.18 "Hg10 mi
9:50 AM64 °FSunny.1 mph73%30.18 "Hg10 mi
9:20 AM63 °FSunny.2 mph73%30.18 "Hg10 mi
8:50 AM57 °FSunny.3 mph77%30.18 "Hg10 mi
8:20 AM54 °FSunny.6 mph82%30.15 "Hg10 mi
7:50 AM52 °FSunny.6 mph88%30.15 "Hg10 mi
7:20 AM52 °FClear.5 mph82%30.15 "Hg10 mi
6:50 AM52 °FClear.6 mph82%30.15 "Hg10 mi
6:20 AM52 °FClear.6 mph82%30.15 "Hg10 mi
5:50 AM52 °FClear.2 mph82%30.15 "Hg10 mi
5:20 AM52 °FCool.N/A82%30.15 "HgN/A
4:50 AM54 °FClear.5 mph77%30.15 "Hg10 mi
4:20 AM55 °FClear.6 mph77%30.15 "Hg10 mi
3:50 AM57 °FClear.7 mph72%30.18 "Hg10 mi
3:20 AM55 °FClear.3 mph77%30.18 "Hg10 mi
2:50 AM55 °FClear.7 mph77%30.18 "Hg10 mi
2:20 AM59 °FClear.8 mph68%30.18 "Hg10 mi
1:50 AM57 °FClear.7 mph72%30.18 "Hg10 mi
1:20 AM57 °FClear.8 mph72%30.18 "Hg10 mi
12:50 AM57 °FClear.8 mph72%30.18 "Hg10 mi
12:20 AM57 °FClear.6 mph72%30.18 "Hg10 mi
11:50 PM
Thu, Sep 29
57 °FClear.7 mph72%30.18 "Hg10 mi
11:20 PM59 °FClear.8 mph68%30.18 "Hg10 mi
10:50 PM59 °FClear.7 mph72%30.18 "Hg10 mi
10:20 PM59 °FClear.6 mph72%30.18 "Hg10 mi
9:50 PM61 °FClear.5 mph68%30.18 "Hg10 mi
9:20 PM61 °FClear.6 mph68%30.18 "Hg10 mi
8:50 PM63 °FClear.6 mph68%30.18 "Hg10 mi
8:20 PM64 °FClear.5 mph64%30.18 "Hg10 mi
7:50 PM70 °FClear.2 mph57%30.18 "Hg10 mi
7:20 PM70 °FClear.2 mph50%30.18 "Hg10 mi
6:50 PM73 °FSunny.6 mph41%30.18 "Hg10 mi
6:20 PM77 °FSunny.No wind34%30.18 "Hg10 mi
5:50 PM77 °FSunny.6 mph34%30.18 "Hg10 mi
4:50 PM79 °FSunny.6 mph32%30.18 "Hg10 mi
4:20 PM79 °FSunny.6 mph30%30.21 "Hg10 mi
Weather by CustomWeather, © 2016

See weather overviewHow to use our weather pages